QPF
0.20 0.20 0.17 0.15 0.14 0.18 0.20 0.17 0.12 0.10 0.10 0.10 0.06 0.05 0.05 0.05 0.07 0.05 0.05 0.05 0.06 0.05 0.05 0.04 0.05 0.07 0.08 0.07 0.06 0.04 0.03 0.05 0.04 0.04 0.03 0.02 0.02 0.02 0.02 0.03 0.04 0.05 0.05
0.14 0.16 0.18 0.20 0.18 0.17 0.17 0.14 0.12 0.10 0.09 0.09 0.08 0.08 0.07 0.07 0.07 0.07 0.07 0.07 0.05 0.05 0.05 0.04 0.05 0.06 0.05 0.05 0.04 0.04 0.05 0.04 0.04 0.03 0.03 0.02 0.02 0.01 0.02 0.02 0.03 0.04 0.04
0.13 0.17 0.19 0.22 0.24 0.20 0.17 0.16 0.13 0.10 0.08 0.10 0.10 0.08 0.09 0.07 0.07 0.08 0.08 0.09 0.07 0.05 0.04 0.05 0.06 0.07 0.06 0.05 0.05 0.05 0.04 0.04 0.03 0.03 0.03 0.03 0.02 0.02 0.03 0.03 0.03 0.03 0.03
0.06 0.11 0.17 0.19 0.22 0.19 0.17 0.17 0.14 0.12 0.10 0.10 0.09 0.09 0.09 0.10 0.09 0.08 0.09 0.10 0.10 0.07 0.07 0.08 0.07 0.07 0.06 0.07 0.06 0.06 0.06 0.04 0.03 0.03 0.03 0.04 0.03 0.03 0.03 0.03 0.03 0.03 0.04
0.04 0.07 0.11 0.11 0.12 0.13 0.15 0.14 0.13 0.12 0.10 0.10 0.10 0.10 0.11 0.11 0.11 0.09 0.10 0.10 0.10 0.10 0.11 0.09 0.08 0.08 0.07 0.08 0.09 0.08 0.08 0.05 0.04 0.04 0.04 0.04 0.03 0.03 0.04 0.04 0.04 0.04 0.04
0.06 0.05 0.06 0.09 0.10 0.11 0.13 0.14 0.13 0.12 0.11 0.11 0.09 0.10 0.14 0.13 0.11 0.10 0.09 0.08 0.09 0.08 0.07 0.08 0.09 0.07 0.06 0.06 0.08 0.09 0.08 0.07 0.06 0.06 0.05 0.05 0.04 0.04 0.04 0.04 0.04 0.04 0.03
0.06 0.08 0.07 0.08 0.09 0.10 0.10 0.11 0.11 0.13 0.12 0.12 0.14 0.15 0.15 0.17 0.14 0.10 0.08 0.09 0.10 0.07 0.05 0.06 0.08 0.07 0.06 0.04 0.05 0.07 0.09 0.09 0.07 0.06 0.05 0.05 0.05 0.05 0.05 0.04 0.04 0.04 0.04
0.07 0.08 0.10 0.10 0.09 0.11 0.09 0.09 0.11 0.14 0.12 0.12 0.14 0.16 0.17 0.19 0.18 0.11 0.09 0.09 0.08 0.06 0.05 0.05 0.07 0.09 0.10 0.09 0.06 0.05 0.06 0.08 0.07 0.06 0.06 0.04 0.04 0.04 0.05 0.05 0.04 0.04 0.04
0.08 0.08 0.08 0.09 0.08 0.09 0.11 0.11 0.12 0.15 0.16 0.14 0.12 0.14 0.18 0.18 0.20 0.17 0.12 0.08 0.08 0.07 0.05 0.05 0.06 0.08 0.08 0.09 0.08 0.06 0.05 0.03 0.04 0.04 0.05 0.04 0.03 0.03 0.03 0.04 0.04 0.03 0.03
0.05 0.05 0.07 0.10 0.08 0.08 0.11 0.11 0.13 0.14 0.17 0.16 0.14 0.13 0.13 0.15 0.17 0.17 0.15 0.09 0.07 0.07 0.06 0.05 0.04 0.06 0.07 0.08 0.07 0.06 0.04 0.03 0.03 0.03 0.03 0.04 0.03 0.03 0.03 0.04 0.04 0.04 0.04
0.04 0.04 0.05 0.08 0.09 0.09 0.10 0.10 0.12 0.13 0.15 0.14 0.12 0.11 0.12 0.13 0.12 0.14 0.14 0.11 0.08 0.06 0.04 0.04 0.04 0.04 0.05 0.05 0.05 0.04 0.03 0.02 0.02 0.02 0.02 0.03 0.03 0.02 0.02 0.03 0.04 0.05 0.04
0.05 0.05 0.05 0.06 0.07 0.08 0.09 0.10 0.11 0.12 0.13 0.13 0.12 0.09 0.11 0.12 0.10 0.10 0.10 0.09 0.06 0.04 0.03 0.03 0.03 0.03 0.03 0.04 0.06 0.04 0.02 0.02 0.02 0.02 0.02 0.03 0.03 0.03 0.03 0.03 0.03 0.04 0.04
0.03 0.04 0.06 0.06 0.07 0.07 0.07 0.08 0.08 0.09 0.09 0.12 0.12 0.11 0.10 0.09 0.07 0.07 0.07 0.06 0.06 0.04 0.04 0.04 0.04 0.04 0.04 0.04 0.07 0.07 0.04 0.02 0.01 0.02 0.02 0.02 0.02 0.02 0.03 0.03 0.03 0.02 0.03
0.01 0.02 0.05 0.07 0.07 0.06 0.06 0.07 0.06 0.06 0.08 0.10 0.09 0.11 0.11 0.09 0.07 0.07 0.07 0.06 0.06 0.05 0.04 0.04 0.04 0.06 0.07 0.06 0.07 0.06 0.05 0.04 0.03 0.02 0.01 0.01 0.02 0.02 0.02 0.02 0.02 0.01 0.01
0.01 0.01 0.04 0.08 0.09 0.08 0.08 0.08 0.07 0.07 0.08 0.08 0.08 0.08 0.09 0.08 0.08 0.08 0.08 0.07 0.06 0.06 0.06 0.05 0.04 0.05 0.06 0.06 0.07 0.05 0.03 0.05 0.05 0.04 0.02 0.01 0.01 0.02 0.02 0.02 0.02 0.02 0.01
0.02 0.01 0.02 0.03 0.07 0.09 0.09 0.08 0.07 0.08 0.08 0.08 0.08 0.07 0.07 0.05 0.05 0.05 0.07 0.08 0.08 0.07 0.07 0.06 0.06 0.05 0.05 0.06 0.05 0.05 0.04 0.06 0.05 0.04 0.03 0.02 0.02 0.02 0.02 0.02 0.02 0.02 0.01
0.02 0.02 0.02 0.02 0.03 0.05 0.06 0.05 0.05 0.06 0.06 0.06 0.06 0.05 0.05 0.04 0.05 0.04 0.05 0.06 0.07 0.07 0.06 0.04 0.04 0.04 0.03 0.04 0.04 0.04 0.04 0.04 0.05 0.05 0.04 0.03 0.03 0.02 0.02 0.02 0.02 0.02 0.01
0.02 0.03 0.03 0.03 0.03 0.03 0.03 0.03 0.03 0.04 0.05 0.04 0.04 0.04 0.04 0.03 0.04 0.04 0.04 0.04 0.05 0.05 0.04 0.03 0.03 0.04 0.04 0.04 0.05 0.05 0.04 0.04 0.04 0.06 0.04 0.03 0.04 0.03 0.03 0.02 0.01 0.01 0.01
0.02 0.03 0.04 0.04 0.04 0.04 0.04 0.04 0.04 0.04 0.04 0.04 0.03 0.03 0.03 0.03 0.03 0.04 0.04 0.04 0.04 0.03 0.04 0.03 0.02 0.04 0.04 0.03 0.04 0.04 0.04 0.06 0.04 0.06 0.06 0.06 0.05 0.03 0.03 0.02 0.02 0.02 0.02
0.03 0.04 0.04 0.04 0.04 0.04 0.04 0.04 0.05 0.05 0.05 0.04 0.03 0.04 0.03 0.03 0.03 0.04 0.04 0.04 0.04 0.03 0.04 0.03 0.02 0.02 0.02 0.03 0.04 0.04 0.04 0.05 0.05 0.04 0.04 0.04 0.04 0.03 0.03 0.02 0.02 0.02 0.03
0.03 0.03 0.04 0.04 0.04 0.03 0.02 0.03 0.04 0.05 0.05 0.05 0.04 0.03 0.03 0.05 0.05 0.05 0.04 0.04 0.03 0.03 0.03 0.03 0.02 0.03 0.03 0.03 0.04 0.05 0.04 0.04 0.06 0.06 0.04 0.02 0.02 0.02 0.02 0.02 0.01 0.02 0.02
0.03 0.04 0.03 0.04 0.04 0.03 0.04 0.04 0.05 0.06 0.06 0.06 0.07 0.05 0.05 0.06 0.04 0.03 0.03 0.03 0.03 0.03 0.03 0.03 0.03 0.03 0.03 0.03 0.05 0.06 0.07 0.06 0.05 0.07 0.06 0.03 0.02 0.02 0.01 0.01 0.02 0.02 0.02
0.03 0.03 0.03 0.03 0.03 0.03 0.04 0.03 0.03 0.04 0.05 0.06 0.07 0.07 0.05 0.04 0.03 0.03 0.02 0.02 0.02 0.02 0.02 0.03 0.03 0.03 0.03 0.04 0.06 0.06 0.08 0.09 0.07 0.08 0.11 0.06 0.03 0.03 0.02 0.01 0.02 0.01 0.01
0.03 0.03 0.03 0.03 0.02 0.02 0.02 0.02 0.01 0.02 0.04 0.05 0.05 0.06 0.06 0.05 0.04 0.04 0.04 0.04 0.04 0.03 0.02 0.03 0.03 0.03 0.04 0.05 0.06 0.07 0.09 0.12 0.11 0.09 0.14 0.11 0.05 0.04 0.04 0.04 0.03 0.02 0.01
0.03 0.02 0.02 0.02 0.02 0.02 0.02 0.03 0.02 0.03 0.04 0.05 0.05 0.04 0.03 0.04 0.04 0.05 0.06 0.07 0.06 0.04 0.03 0.03 0.03 0.03 0.03 0.04 0.05 0.06 0.07 0.09 0.09 0.08 0.11 0.12 0.08 0.07 0.06 0.06 0.05 0.04 0.02
0.03 0.02 0.02 0.02 0.02 0.03 0.03 0.03 0.03 0.03 0.04 0.04 0.04 0.04 0.04 0.04 0.04 0.05 0.07 0.08 0.07 0.06 0.05 0.05 0.05 0.04 0.04 0.04 0.05 0.05 0.05 0.07 0.09 0.08 0.08 0.11 0.11 0.11 0.09 0.07 0.07 0.07 0.04
MSLP
1009.69 1010.16 1010.64 1011.15 1011.67 1012.19 1012.69 1013.12 1013.45 1013.65 1013.72 1013.67 1013.53 1013.37 1013.26 1013.24 1013.35 1013.62 1014.02 1014.51 1015.04 1015.57 1016.04 1016.43 1016.74 1016.97 1017.13 1017.27 1017.39 1017.52 1017.66 1017.81 1017.97 1018.13 1018.29 1018.43 1018.58 1018.71 1018.85 1018.98 1019.11 1019.23 1019.36
1009.72 1010.17 1010.63 1011.10 1011.57 1012.03 1012.47 1012.83 1013.12 1013.30 1013.36 1013.34 1013.25 1013.15 1013.10 1013.13 1013.27 1013.55 1013.94 1014.42 1014.93 1015.44 1015.91 1016.31 1016.63 1016.87 1017.05 1017.19 1017.31 1017.43 1017.55 1017.68 1017.82 1017.96 1018.11 1018.26 1018.40 1018.53 1018.66 1018.79 1018.91 1019.03 1019.15
1009.67 1010.08 1010.50 1010.92 1011.35 1011.75 1012.13 1012.46 1012.73 1012.92 1013.04 1013.09 1013.10 1013.11 1013.14 1013.24 1013.42 1013.69 1014.05 1014.46 1014.91 1015.35 1015.77 1016.13 1016.44 1016.68 1016.88 1017.04 1017.18 1017.31 1017.43 1017.57 1017.70 1017.84 1017.99 1018.13 1018.26 1018.39 1018.51 1018.63 1018.74 1018.86 1018.97
1009.60 1009.95 1010.32 1010.69 1011.07 1011.43 1011.77 1012.08 1012.36 1012.60 1012.80 1012.96 1013.10 1013.23 1013.38 1013.55 1013.77 1014.02 1014.32 1014.65 1014.99 1015.33 1015.65 1015.94 1016.20 1016.43 1016.64 1016.82 1016.99 1017.16 1017.31 1017.47 1017.62 1017.77 1017.92 1018.06 1018.19 1018.31 1018.42 1018.53 1018.63 1018.74 1018.85
1009.54 1009.83 1010.14 1010.46 1010.79 1011.11 1011.43 1011.74 1012.05 1012.35 1012.63 1012.92 1013.20 1013.47 1013.74 1014.00 1014.25 1014.50 1014.73 1014.95 1015.17 1015.37 1015.57 1015.77 1015.97 1016.17 1016.38 1016.58 1016.79 1017.00 1017.20 1017.39 1017.58 1017.75 1017.91 1018.05 1018.17 1018.29 1018.39 1018.49 1018.59 1018.69 1018.80
1009.48 1009.71 1009.97 1010.26 1010.54 1010.84 1011.14 1011.45 1011.79 1012.14 1012.52 1012.93 1013.34 1013.75 1014.14 1014.49 1014.79 1015.02 1015.20 1015.33 1015.42 1015.50 1015.57 1015.67 1015.79 1015.95 1016.14 1016.36 1016.60 1016.85 1017.10 1017.34 1017.56 1017.76 1017.94 1018.09 1018.22 1018.33 1018.43 1018.52 1018.62 1018.72 1018.83
1009.42 1009.60 1009.83 1010.07 1010.34 1010.61 1010.90 1011.21 1011.57 1011.97 1012.42 1012.92 1013.44 1013.97 1014.47 1014.90 1015.25 1015.50 1015.65 1015.71 1015.72 1015.69 1015.66 1015.65 1015.70 1015.81 1015.98 1016.20 1016.46 1016.75 1017.04 1017.32 1017.58 1017.82 1018.02 1018.19 1018.32 1018.44 1018.54 1018.63 1018.72 1018.82 1018.93
1009.32 1009.48 1009.68 1009.91 1010.16 1010.42 1010.69 1011.00 1011.36 1011.78 1012.28 1012.83 1013.43 1014.05 1014.63 1015.15 1015.55 1015.84 1015.99 1016.03 1015.99 1015.90 1015.80 1015.73 1015.72 1015.79 1015.93 1016.14 1016.41 1016.71 1017.03 1017.34 1017.63 1017.90 1018.12 1018.31 1018.47 1018.60 1018.71 1018.80 1018.90 1019.00 1019.11
1009.18 1009.32 1009.52 1009.74 1009.98 1010.24 1010.50 1010.80 1011.14 1011.56 1012.05 1012.63 1013.26 1013.92 1014.56 1015.14 1015.61 1015.95 1016.14 1016.21 1016.18 1016.08 1015.97 1015.87 1015.83 1015.87 1015.99 1016.19 1016.44 1016.75 1017.07 1017.40 1017.71 1018.00 1018.25 1018.47 1018.65 1018.80 1018.92 1019.03 1019.13 1019.23 1019.35
1008.99 1009.13 1009.33 1009.55 1009.80 1010.04 1010.29 1010.57 1010.88 1011.26 1011.72 1012.27 1012.89 1013.56 1014.22 1014.84 1015.37 1015.77 1016.04 1016.18 1016.21 1016.16 1016.09 1016.02 1015.99 1016.02 1016.13 1016.31 1016.55 1016.83 1017.15 1017.48 1017.81 1018.11 1018.39 1018.63 1018.84 1019.02 1019.16 1019.28 1019.39 1019.50 1019.60
1008.76 1008.90 1009.10 1009.33 1009.57 1009.81 1010.04 1010.29 1010.56 1010.89 1011.29 1011.78 1012.35 1012.98 1013.63 1014.26 1014.83 1015.30 1015.65 1015.89 1016.02 1016.08 1016.09 1016.08 1016.10 1016.16 1016.27 1016.45 1016.67 1016.95 1017.25 1017.57 1017.90 1018.22 1018.52 1018.79 1019.02 1019.22 1019.39 1019.53 1019.65 1019.75 1019.85
1008.51 1008.65 1008.84 1009.06 1009.29 1009.52 1009.73 1009.94 1010.17 1010.43 1010.76 1011.17 1011.66 1012.22 1012.82 1013.44 1014.03 1014.55 1014.99 1015.34 1015.60 1015.78 1015.91 1016.01 1016.10 1016.22 1016.36 1016.55 1016.77 1017.03 1017.33 1017.64 1017.97 1018.30 1018.61 1018.91 1019.17 1019.40 1019.59 1019.74 1019.86 1019.96 1020.05
1008.24 1008.36 1008.53 1008.73 1008.94 1009.15 1009.34 1009.52 1009.70 1009.91 1010.16 1010.48 1010.88 1011.35 1011.89 1012.47 1013.05 1013.61 1014.12 1014.56 1014.94 1015.26 1015.51 1015.74 1015.94 1016.13 1016.34 1016.55 1016.80 1017.07 1017.36 1017.67 1018.01 1018.34 1018.67 1018.98 1019.27 1019.51 1019.71 1019.87 1020.00 1020.09 1020.16
1007.98 1008.06 1008.18 1008.35 1008.53 1008.72 1008.89 1009.05 1009.19 1009.35 1009.54 1009.78 1010.09 1010.47 1010.93 1011.44 1011.99 1012.55 1013.10 1013.62 1014.10 1014.54 1014.92 1015.27 1015.58 1015.87 1016.15 1016.43 1016.71 1017.01 1017.32 1017.65 1017.99 1018.34 1018.68 1019.00 1019.29 1019.55 1019.76 1019.92 1020.04 1020.12 1020.18
1007.72 1007.74 1007.81 1007.93 1008.08 1008.24 1008.40 1008.54 1008.67 1008.80 1008.95 1009.13 1009.36 1009.67 1010.04 1010.48 1010.97 1011.51 1012.06 1012.62 1013.17 1013.69 1014.18 1014.64 1015.06 1015.45 1015.82 1016.18 1016.52 1016.87 1017.21 1017.57 1017.92 1018.28 1018.63 1018.95 1019.25 1019.50 1019.71 1019.87 1019.98 1020.06 1020.11
1007.48 1007.43 1007.44 1007.51 1007.63 1007.76 1007.91 1008.06 1008.19 1008.31 1008.44 1008.59 1008.77 1009.01 1009.31 1009.67 1010.10 1010.58 1011.11 1011.67 1012.24 1012.81 1013.37 1013.91 1014.43 1014.91 1015.38 1015.81 1016.23 1016.64 1017.03 1017.43 1017.81 1018.18 1018.53 1018.85 1019.13 1019.37 1019.57 1019.72 1019.82 1019.90 1019.96
1007.24 1007.15 1007.11 1007.13 1007.21 1007.34 1007.48 1007.64 1007.79 1007.93 1008.07 1008.20 1008.36 1008.55 1008.79 1009.09 1009.45 1009.87 1010.34 1010.86 1011.42 1011.99 1012.59 1013.17 1013.75 1014.32 1014.86 1015.38 1015.87 1016.35 1016.80 1017.24 1017.65 1018.03 1018.38 1018.68 1018.95 1019.17 1019.34 1019.48 1019.58 1019.67 1019.74
1007.04 1006.91 1006.83 1006.83 1006.89 1007.00 1007.15 1007.33 1007.50 1007.67 1007.82 1007.97 1008.12 1008.29 1008.48 1008.72 1009.02 1009.37 1009.78 1010.25 1010.76 1011.32 1011.90 1012.50 1013.12 1013.73 1014.33 1014.92 1015.48 1016.02 1016.53 1017.01 1017.44 1017.83 1018.17 1018.46 1018.70 1018.89 1019.04 1019.17 1019.27 1019.37 1019.47
1006.87 1006.72 1006.64 1006.62 1006.67 1006.79 1006.94 1007.12 1007.31 1007.50 1007.67 1007.83 1007.98 1008.14 1008.32 1008.52 1008.77 1009.07 1009.42 1009.83 1010.29 1010.80 1011.36 1011.95 1012.57 1013.20 1013.83 1014.47 1015.08 1015.67 1016.23 1016.73 1017.19 1017.58 1017.91 1018.18 1018.39 1018.55 1018.68 1018.80 1018.91 1019.03 1019.17
1006.73 1006.60 1006.53 1006.51 1006.56 1006.67 1006.82 1007.00 1007.19 1007.37 1007.55 1007.71 1007.87 1008.03 1008.20 1008.39 1008.61 1008.88 1009.19 1009.56 1009.98 1010.45 1010.97 1011.54 1012.13 1012.76 1013.41 1014.06 1014.70 1015.31 1015.89 1016.42 1016.88 1017.27 1017.59 1017.83 1018.02 1018.15 1018.26 1018.37 1018.49 1018.63 1018.80
1006.62 1006.53 1006.48 1006.48 1006.53 1006.63 1006.75 1006.91 1007.06 1007.22 1007.37 1007.52 1007.67 1007.83 1008.00 1008.20 1008.44 1008.71 1009.02 1009.38 1009.78 1010.23 1010.72 1011.25 1011.83 1012.43 1013.06 1013.70 1014.34 1014.96 1015.54 1016.07 1016.53 1016.91 1017.21 1017.43 1017.59 1017.71 1017.80 1017.90 1018.02 1018.18 1018.38
1006.51 1006.46 1006.45 1006.47 1006.52 1006.59 1006.68 1006.77 1006.87 1006.96 1007.06 1007.17 1007.30 1007.46 1007.65 1007.88 1008.16 1008.47 1008.83 1009.22 1009.64 1010.09 1010.58 1011.09 1011.63 1012.20 1012.80 1013.41 1014.02 1014.62 1015.19 1015.70 1016.15 1016.51 1016.79 1017.00 1017.14 1017.23 1017.31 1017.39 1017.51 1017.67 1017.89
1006.38 1006.37 1006.39 1006.43 1006.47 1006.51 1006.54 1006.55 1006.56 1006.57 1006.59 1006.64 1006.73 1006.89 1007.11 1007.39 1007.74 1008.14 1008.58 1009.04 1009.52 1010.02 1010.52 1011.03 1011.55 1012.09 1012.64 1013.20 1013.77 1014.32 1014.85 1015.33 1015.75 1016.10 1016.36 1016.55 1016.67 1016.75 1016.81 1016.88 1016.98 1017.13 1017.34
1006.19 1006.23 1006.28 1006.33 1006.36 1006.36 1006.32 1006.24 1006.14 1006.04 1005.97 1005.95 1006.01 1006.16 1006.41 1006.77 1007.21 1007.72 1008.28 1008.86 1009.44 1010.00 1010.55 1011.07 1011.59 1012.08 1012.59 1013.09 1013.59 1014.08 1014.56 1015.00 1015.39 1015.71 1015.95 1016.13 1016.24 1016.31 1016.35 1016.40 1016.47 1016.59 1016.76
1005.93 1006.00 1006.09 1006.15 1006.17 1006.13 1006.03 1005.86 1005.67 1005.47 1005.30 1005.22 1005.24 1005.40 1005.69 1006.13 1006.68 1007.32 1008.01 1008.72 1009.41 1010.07 1010.67 1011.23 1011.73 1012.20 1012.64 1013.07 1013.50 1013.93 1014.34 1014.73 1015.07 1015.37 1015.60 1015.76 1015.87 1015.93 1015.95 1015.98 1016.01 1016.09 1016.20
1005.60 1005.71 1005.83 1005.92 1005.94 1005.88 1005.73 1005.50 1005.23 1004.95 1004.72 1004.59 1004.59 1004.76 1005.10 1005.61 1006.27 1007.03 1007.85 1008.69 1009.49 1010.24 1010.90 1011.48 1011.98 1012.41 1012.80 1013.16 1013.51 1013.85 1014.19 1014.52 1014.83 1015.10 1015.31 1015.47 1015.57 1015.62 1015.64 1015.63 1015.63 1015.64 1015.69
Thickness
5777 5777 5776 5776 5776 5775 5773 5772 5772 5772 5772 5772 5773 5773 5773 5773 5773 5772 5770 5767 5766 5764 5762 5760 5758 5756 5754 5752 5750 5748 5747 5745 5744 5742 5740 5739 5737 5735 5734 5733 5731 5729 5728
5777 5777 5776 5776 5775 5775 5774 5773 5773 5772 5772 5773 5773 5773 5773 5774 5773 5772 5770 5768 5766 5765 5763 5761 5758 5756 5754 5752 5750 5748 5747 5745 5744 5742 5740 5739 5737 5735 5733 5732 5730 5729 5727
5777 5776 5776 5776 5775 5775 5773 5772 5772 5772 5772 5772 5772 5773 5773 5774 5774 5772 5771 5769 5767 5765 5763 5761 5759 5757 5755 5753 5751 5749 5747 5745 5743 5742 5740 5738 5737 5735 5733 5731 5730 5728 5726
5778 5777 5776 5776 5776 5775 5773 5772 5771 5770 5769 5770 5771 5772 5773 5773 5774 5773 5771 5770 5768 5766 5763 5761 5759 5757 5756 5754 5752 5750 5748 5746 5744 5742 5740 5738 5737 5735 5733 5731 5729 5727 5726
5777 5777 5776 5776 5776 5774 5772 5771 5769 5769 5767 5767 5769 5770 5772 5772 5773 5773 5772 5771 5769 5767 5764 5762 5760 5758 5756 5754 5753 5751 5749 5746 5744 5742 5740 5739 5737 5735 5733 5731 5730 5728 5726
5776 5776 5776 5775 5775 5773 5771 5770 5768 5768 5767 5766 5767 5768 5769 5771 5771 5771 5771 5770 5769 5767 5765 5763 5760 5758 5756 5755 5753 5751 5749 5747 5745 5743 5741 5739 5737 5735 5733 5732 5730 5728 5725
5775 5775 5774 5774 5773 5772 5770 5769 5767 5765 5765 5766 5762 5760 5764 5767 5767 5768 5769 5768 5768 5767 5765 5763 5761 5759 5757 5755 5753 5751 5749 5747 5745 5743 5741 5738 5736 5735 5733 5731 5729 5727 5725
5775 5775 5772 5771 5771 5770 5769 5767 5766 5763 5763 5764 5759 5754 5751 5753 5760 5765 5765 5766 5766 5765 5764 5763 5760 5759 5756 5755 5752 5750 5747 5746 5744 5742 5740 5738 5736 5734 5732 5730 5729 5727 5725
5774 5773 5772 5771 5770 5769 5766 5765 5765 5762 5759 5761 5762 5755 5748 5744 5749 5756 5759 5761 5762 5761 5761 5761 5760 5757 5756 5754 5751 5748 5746 5745 5743 5741 5739 5737 5735 5733 5731 5729 5727 5726 5724
5772 5772 5771 5770 5769 5768 5766 5765 5764 5763 5760 5757 5759 5760 5758 5754 5746 5744 5750 5755 5757 5757 5757 5758 5757 5756 5755 5753 5751 5748 5746 5743 5741 5739 5737 5735 5734 5732 5730 5728 5727 5725 5723
5770 5770 5769 5768 5767 5766 5765 5763 5763 5762 5760 5757 5756 5756 5755 5754 5752 5744 5741 5745 5748 5752 5754 5754 5754 5754 5752 5751 5749 5747 5745 5742 5740 5738 5736 5734 5732 5730 5729 5727 5725 5724 5722
5767 5767 5767 5766 5764 5763 5763 5762 5761 5760 5758 5757 5756 5755 5753 5750 5748 5746 5741 5741 5742 5746 5750 5751 5751 5751 5751 5750 5747 5745 5744 5741 5738 5736 5734 5732 5730 5729 5727 5725 5724 5722 5721
5763 5763 5764 5762 5761 5760 5760 5760 5758 5757 5756 5755 5753 5753 5753 5752 5751 5749 5743 5740 5740 5742 5745 5746 5748 5748 5748 5747 5744 5743 5741 5739 5736 5734 5732 5730 5728 5726 5724 5723 5721 5720 5719
5761 5760 5760 5759 5758 5758 5757 5757 5755 5755 5754 5752 5752 5751 5749 5749 5750 5748 5744 5739 5734 5735 5738 5740 5744 5745 5744 5742 5741 5740 5737 5736 5734 5732 5729 5727 5725 5723 5721 5720 5718 5717 5716
5759 5758 5756 5755 5754 5754 5753 5752 5751 5750 5750 5749 5748 5747 5746 5746 5746 5746 5744 5740 5733 5726 5728 5734 5736 5740 5740 5739 5738 5736 5735 5733 5731 5728 5726 5724 5722 5720 5718 5716 5715 5713 5712
5755 5753 5752 5751 5750 5749 5749 5748 5747 5747 5746 5745 5744 5743 5742 5742 5742 5741 5740 5738 5735 5730 5726 5730 5732 5735 5736 5735 5734 5733 5731 5729 5727 5726 5723 5721 5719 5717 5715 5713 5712 5710 5708
5751 5749 5748 5746 5745 5744 5744 5743 5743 5742 5741 5740 5740 5739 5737 5737 5736 5736 5736 5734 5732 5730 5724 5727 5730 5731 5730 5729 5729 5728 5727 5725 5724 5723 5720 5718 5716 5714 5713 5710 5708 5707 5706
5746 5745 5743 5742 5740 5740 5739 5738 5737 5737 5736 5734 5734 5733 5732 5732 5731 5730 5729 5727 5727 5726 5723 5720 5722 5723 5723 5724 5723 5723 5723 5723 5721 5720 5718 5716 5714 5712 5709 5707 5705 5703 5702
5742 5741 5739 5737 5736 5735 5734 5733 5733 5732 5731 5730 5729 5728 5726 5725 5724 5724 5723 5722 5722 5722 5720 5717 5716 5717 5717 5718 5716 5717 5718 5717 5717 5717 5715 5713 5711 5709 5707 5704 5702 5700 5698
5737 5735 5734 5732 5731 5730 5729 5728 5727 5727 5726 5725 5724 5723 5721 5720 5718 5717 5717 5716 5716 5714 5713 5711 5710 5709 5709 5710 5709 5708 5708 5710 5710 5712 5711 5710 5708 5706 5703 5701 5699 5697 5695
5732 5730 5727 5726 5725 5724 5722 5721 5721 5721 5719 5718 5717 5716 5715 5714 5713 5711 5711 5709 5708 5706 5705 5703 5702 5701 5701 5700 5700 5701 5701 5702 5703 5705 5704 5704 5703 5700 5698 5696 5694 5692 5691
5725 5723 5721 5719 5717 5716 5714 5714 5713 5713 5713 5711 5710 5709 5708 5707 5705 5704 5703 5703 5701 5699 5697 5695 5694 5693 5693 5693 5694 5694 5693 5693 5693 5698 5696 5697 5697 5695 5694 5692 5690 5688 5686
5717 5715 5713 5711 5709 5707 5706 5705 5705 5705 5705 5704 5703 5701 5701 5700 5698 5697 5696 5695 5694 5693 5691 5690 5688 5687 5687 5688 5687 5687 5687 5686 5686 5690 5688 5688 5690 5689 5690 5689 5687 5684 5682
5710 5707 5705 5703 5701 5700 5698 5697 5697 5697 5697 5696 5695 5694 5692 5690 5689 5688 5688 5686 5686 5686 5685 5684 5684 5684 5684 5683 5682 5682 5682 5682 5683 5684 5683 5679 5682 5682 5685 5683 5682 5679 5677
5702 5700 5698 5697 5694 5692 5690 5689 5688 5689 5689 5688 5688 5687 5684 5682 5680 5679 5679 5677 5677 5677 5678 5678 5677 5677 5677 5676 5675 5674 5674 5672 5672 5674 5676 5673 5674 5674 5675 5676 5675 5673 5671
5696 5694 5692 5690 5688 5685 5683 5681 5680 5681 5680 5680 5680 5679 5677 5675 5672 5670 5669 5668 5667 5668 5668 5669 5669 5669 5669 5669 5668 5666 5666 5663 5663 5665 5669 5666 5666 5665 5663 5667 5667 5665 5663